Dew Point Data


Current

Temp 68.0 F. Dew Point 66.9 F.


Dew Point Comfort Scale

dewpoints

Date, Time Temperature Dew Point
Mon Aug 2 00:08:04 2021 66.0 F. 64.9 F.
Mon Aug 2 01:08:04 2021 64.0 F. 63.0 F.
Mon Aug 2 02:08:04 2021 64.0 F. 63.0 F.
Mon Aug 2 03:08:04 2021 66.0 F. 64.0 F.
Mon Aug 2 04:08:04 2021 66.0 F. 64.0 F.
Mon Aug 2 05:08:05 2021 61.0 F. 60.1 F.
Mon Aug 2 06:08:04 2021 58.0 F. 57.9 F.
Mon Aug 2 07:08:04 2021 60.0 F. 60.1 F.
Mon Aug 2 08:08:04 2021 66.0 F. 63.0 F.
Mon Aug 2 09:08:05 2021 66.0 F. 63.0 F.
Mon Aug 2 10:08:05 2021 73.0 F. 60.1 F.
Mon Aug 2 11:08:05 2021 73.0 F. 60.1 F.
Mon Aug 2 12:08:05 2021 76.0 F. 60.1 F.
Mon Aug 2 13:08:04 2021 78.0 F. 60.1 F.
Mon Aug 2 14:08:05 2021 79.0 F. 62.1 F.
Mon Aug 2 15:08:04 2021 79.0 F. 61.0 F.
Mon Aug 2 16:08:04 2021 79.0 F. 61.0 F.
Mon Aug 2 17:08:05 2021 80.0 F. 62.1 F.
Mon Aug 2 18:08:05 2021 80.0 F. 62.1 F.
Mon Aug 2 19:08:05 2021 76.0 F. 61.0 F.
Mon Aug 2 20:08:05 2021 72.0 F. 61.0 F.
Mon Aug 2 21:08:04 2021 64.0 F. 62.1 F.
Mon Aug 2 22:08:05 2021 64.0 F. 62.1 F.
Mon Aug 2 23:08:05 2021 63.0 F. 62.1 F.
Tue Aug 3 00:08:05 2021 59.0 F. 59.0 F.
Tue Aug 3 01:08:04 2021 57.0 F. 57.0 F.
Tue Aug 3 02:08:05 2021 57.0 F. 57.0 F.
Tue Aug 3 03:08:05 2021 57.0 F. 57.0 F.
Tue Aug 3 04:08:05 2021 57.0 F. 57.0 F.
Tue Aug 3 05:08:04 2021 57.0 F. 55.9 F.
Tue Aug 3 06:08:04 2021 57.0 F. 57.0 F.
Tue Aug 3 07:08:05 2021 59.0 F. 59.0 F.
Tue Aug 3 08:08:04 2021 65.0 F. 62.1 F.
Tue Aug 3 09:08:05 2021 65.0 F. 62.1 F.
Tue Aug 3 10:08:05 2021 69.0 F. 63.0 F.
Tue Aug 3 11:08:05 2021 78.0 F. 61.0 F.
Tue Aug 3 12:08:05 2021 78.0 F. 61.0 F.
Tue Aug 3 13:08:04 2021 79.0 F. 57.9 F.
Tue Aug 3 14:08:04 2021 80.0 F. 59.0 F.
Tue Aug 3 15:08:05 2021 82.0 F. 55.0 F.
Tue Aug 3 16:08:04 2021 79.0 F. 57.0 F.
Tue Aug 3 17:08:05 2021 79.0 F. 57.0 F.
Tue Aug 3 18:08:04 2021 81.0 F. 57.0 F.
Tue Aug 3 19:08:04 2021 78.0 F. 59.0 F.
Tue Aug 3 20:08:05 2021 72.0 F. 61.0 F.
Tue Aug 3 21:08:05 2021 72.0 F. 61.0 F.
Tue Aug 3 22:08:05 2021 69.0 F. 61.0 F.
Tue Aug 3 23:08:04 2021 68.0 F. 60.1 F.
Wed Aug 4 00:08:04 2021 65.0 F. 60.1 F.
Wed Aug 4 01:08:04 2021 59.0 F. 57.9 F.
Wed Aug 4 02:08:04 2021 58.0 F. 57.0 F.
Wed Aug 4 03:08:05 2021 57.0 F. 55.9 F.
Wed Aug 4 04:08:04 2021 57.0 F. 55.9 F.
Wed Aug 4 05:08:04 2021 55.0 F. 55.0 F.
Wed Aug 4 06:08:04 2021 55.0 F. 55.0 F.
Wed Aug 4 07:08:04 2021 54.0 F. 54.0 F.
Wed Aug 4 08:08:05 2021 57.0 F. 57.0 F.
Wed Aug 4 09:08:04 2021 64.0 F. 61.0 F.
Wed Aug 4 10:08:04 2021 70.0 F. 62.1 F.
Wed Aug 4 11:08:04 2021 78.0 F. 62.1 F.
Wed Aug 4 12:08:04 2021 80.0 F. 61.0 F.
Wed Aug 4 13:08:04 2021 80.0 F. 59.0 F.
Wed Aug 4 14:08:04 2021 80.0 F. 59.0 F.
Wed Aug 4 15:08:04 2021 81.0 F. 57.9 F.
Wed Aug 4 16:08:04 2021 83.0 F. 59.0 F.
Wed Aug 4 17:08:05 2021 80.0 F. 57.9 F.
Wed Aug 4 18:08:05 2021 80.0 F. 57.9 F.
Wed Aug 4 19:08:05 2021 79.0 F. 55.9 F.
Wed Aug 4 20:08:05 2021 70.0 F. 62.1 F.
Wed Aug 4 21:08:05 2021 70.0 F. 62.1 F.
Wed Aug 4 22:08:05 2021 65.0 F. 61.0 F.
Wed Aug 4 23:08:05 2021 59.0 F. 57.9 F.
Thu Aug 5 00:08:04 2021 58.0 F. 57.0 F.
Thu Aug 5 01:08:04 2021 58.0 F. 57.0 F.
Thu Aug 5 02:08:05 2021 56.0 F. 55.9 F.
Thu Aug 5 03:08:04 2021 56.0 F. 55.0 F.
Thu Aug 5 04:08:05 2021 56.0 F. 55.0 F.
Thu Aug 5 05:08:04 2021 55.0 F. 54.0 F.
Thu Aug 5 06:08:05 2021 54.0 F. 53.1 F.
Thu Aug 5 07:08:04 2021 54.0 F. 53.1 F.
Thu Aug 5 08:08:04 2021 64.0 F. 62.1 F.
Thu Aug 5 09:08:05 2021 72.0 F. 64.0 F.
Thu Aug 5 10:08:05 2021 78.0 F. 62.1 F.
Thu Aug 5 11:08:04 2021 78.0 F. 62.1 F.
Thu Aug 5 12:08:04 2021 80.0 F. 61.0 F.
Thu Aug 5 13:08:04 2021 81.0 F. 60.1 F.
Thu Aug 5 14:08:04 2021 81.0 F. 60.1 F.
Thu Aug 5 15:08:04 2021 82.0 F. 59.0 F.
Thu Aug 5 16:08:05 2021 82.0 F. 60.1 F.
Thu Aug 5 17:08:05 2021 83.0 F. 60.1 F.
Thu Aug 5 18:08:05 2021 82.0 F. 60.1 F.
Thu Aug 5 19:08:04 2021 80.0 F. 61.0 F.
Thu Aug 5 20:08:05 2021 80.0 F. 61.0 F.
Thu Aug 5 21:08:05 2021 71.0 F. 64.9 F.
Thu Aug 5 22:08:05 2021 68.0 F. 66.0 F.
Thu Aug 5 23:08:05 2021 66.0 F. 64.0 F.
Fri Aug 6 00:08:04 2021 62.0 F. 60.1 F.
Fri Aug 6 01:08:05 2021 62.0 F. 60.1 F.
Fri Aug 6 02:08:05 2021 62.0 F. 60.1 F.
Fri Aug 6 03:08:04 2021 60.0 F. 60.1 F.
Fri Aug 6 04:08:05 2021 61.0 F. 60.1 F.
Fri Aug 6 05:08:04 2021 61.0 F. 60.1 F.
Fri Aug 6 06:08:05 2021 61.0 F. 60.1 F.
Fri Aug 6 07:08:05 2021 61.0 F. 60.1 F.
Fri Aug 6 08:08:05 2021 62.0 F. 61.0 F.
Fri Aug 6 09:08:05 2021 66.0 F. 64.9 F.
Fri Aug 6 10:08:04 2021 70.0 F. 66.0 F.
Fri Aug 6 11:08:05 2021 73.0 F. 66.0 F.
Fri Aug 6 12:08:05 2021 82.0 F. 66.9 F.
Fri Aug 6 13:08:04 2021 82.0 F. 66.9 F.
Fri Aug 6 14:08:05 2021 82.0 F. 68.0 F.
Fri Aug 6 15:08:04 2021 84.0 F. 70.0 F.
Fri Aug 6 16:08:04 2021 85.0 F. 66.9 F.
Fri Aug 6 17:08:04 2021 85.0 F. 66.9 F.
Fri Aug 6 18:08:05 2021 85.0 F. 66.9 F.
Fri Aug 6 19:08:05 2021 84.0 F. 66.9 F.
Fri Aug 6 20:08:05 2021 82.0 F. 68.0 F.
Fri Aug 6 21:08:04 2021 76.0 F. 66.9 F.
Fri Aug 6 22:08:04 2021 74.0 F. 64.0 F.
Fri Aug 6 23:08:04 2021 74.0 F. 64.0 F.
Sat Aug 7 00:08:05 2021 67.0 F. 64.0 F.
Sat Aug 7 01:08:05 2021 66.0 F. 64.9 F.
Sat Aug 7 02:08:04 2021 66.0 F. 64.9 F.
Sat Aug 7 03:08:04 2021 66.0 F. 64.0 F.
Sat Aug 7 04:08:04 2021 65.0 F. 64.0 F.
Sat Aug 7 05:08:05 2021 64.0 F. 63.0 F.
Sat Aug 7 06:08:04 2021 64.0 F. 63.0 F.
Sat Aug 7 07:08:04 2021 64.0 F. 63.0 F.
Sat Aug 7 08:08:04 2021 72.0 F. 69.1 F.
Sat Aug 7 09:08:04 2021 72.0 F. 69.1 F.
Sat Aug 7 10:08:04 2021 80.0 F. 70.0 F.
Sat Aug 7 11:08:04 2021 80.0 F. 70.0 F.
Sat Aug 7 12:08:04 2021 85.0 F. 71.1 F.
Sat Aug 7 13:08:04 2021 86.0 F. 71.1 F.
Sat Aug 7 14:08:05 2021 87.0 F. 68.0 F.
Sat Aug 7 15:08:05 2021 86.0 F. 70.0 F.
Sat Aug 7 16:08:05 2021 86.0 F. 70.0 F.
Sat Aug 7 17:08:04 2021 87.0 F. 69.1 F.
Sat Aug 7 18:08:05 2021 86.0 F. 69.1 F.
Sat Aug 7 19:08:04 2021 83.0 F. 70.0 F.
Sat Aug 7 20:08:04 2021 79.0 F. 70.0 F.
Sat Aug 7 21:08:04 2021 75.0 F. 70.0 F.
Sat Aug 7 22:08:04 2021 73.0 F. 70.0 F.
Sat Aug 7 23:08:04 2021 70.0 F. 68.0 F.
Sun Aug 8 00:08:04 2021 70.0 F. 68.0 F.
Sun Aug 8 01:08:05 2021 68.0 F. 66.9 F.
Sun Aug 8 02:08:04 2021 69.0 F. 66.9 F.
Sun Aug 8 03:08:05 2021 67.0 F. 66.0 F.
Sun Aug 8 04:08:04 2021 67.0 F. 66.0 F.
Sun Aug 8 05:08:05 2021 66.0 F. 64.9 F.
Sun Aug 8 06:08:05 2021 66.0 F. 64.9 F.
Sun Aug 8 07:08:05 2021 71.0 F. 68.0 F.
Sun Aug 8 08:08:05 2021 71.0 F. 68.0 F.
Sun Aug 8 09:08:04 2021 73.0 F. 69.1 F.
Sun Aug 8 10:08:04 2021 79.0 F. 71.1 F.
Sun Aug 8 11:08:04 2021 82.0 F. 72.0 F.
Sun Aug 8 12:08:04 2021 84.0 F. 73.9 F.
Sun Aug 8 13:08:04 2021 87.0 F. 73.0 F.
Sun Aug 8 14:08:04 2021 88.0 F. 73.0 F.
Sun Aug 8 15:08:05 2021 88.0 F. 73.0 F.
Sun Aug 8 16:08:05 2021 88.0 F. 73.0 F.
Sun Aug 8 17:08:05 2021 87.0 F. 72.0 F.
Sun Aug 8 18:08:04 2021 85.0 F. 72.0 F.
Sun Aug 8 19:08:05 2021 75.0 F. 66.9 F.
Sun Aug 8 20:08:04 2021 70.0 F. 70.0 F.
Sun Aug 8 21:08:04 2021 70.0 F. 70.0 F.
Sun Aug 8 22:08:04 2021 71.0 F. 70.0 F.
Sun Aug 8 23:08:05 2021 71.0 F. 70.0 F.
Mon Aug 9 00:08:05 2021 71.0 F. 69.1 F.
Mon Aug 9 01:08:04 2021 71.0 F. 69.1 F.
Mon Aug 9 02:08:05 2021 70.0 F. 69.1 F.
Mon Aug 9 03:08:05 2021 70.0 F. 69.1 F.
Mon Aug 9 04:08:05 2021 70.0 F. 69.1 F.
Mon Aug 9 05:08:05 2021 70.0 F. 69.1 F.
Mon Aug 9 06:08:05 2021 70.0 F. 69.1 F.
Mon Aug 9 07:08:04 2021 71.0 F. 70.0 F.
Mon Aug 9 08:08:04 2021 74.0 F. 71.1 F.
Mon Aug 9 09:08:04 2021 78.0 F. 73.0 F.
Mon Aug 9 10:08:04 2021 78.0 F. 73.0 F.
Mon Aug 9 11:08:05 2021 82.0 F. 75.0 F.
Mon Aug 9 12:08:05 2021 88.0 F. 77.0 F.
Mon Aug 9 13:08:05 2021 89.0 F. 77.0 F.
Mon Aug 9 14:08:04 2021 89.0 F. 78.1 F.
Mon Aug 9 15:08:04 2021 91.0 F. 77.0 F.
Mon Aug 9 16:08:04 2021 91.0 F. 77.0 F.
Mon Aug 9 17:08:04 2021 91.0 F. 77.0 F.
Mon Aug 9 18:08:04 2021 86.0 F. 77.0 F.
Mon Aug 9 19:08:05 2021 86.0 F. 78.1 F.
Mon Aug 9 20:08:04 2021 85.0 F. 77.0 F.
Mon Aug 9 21:08:04 2021 83.0 F. 77.0 F.
Mon Aug 9 22:08:05 2021 83.0 F. 75.0 F.
Mon Aug 9 23:08:05 2021 83.0 F. 73.9 F.
Tue Aug 10 00:08:04 2021 82.0 F. 73.9 F.
Tue Aug 10 01:08:04 2021 81.0 F. 73.9 F.
Tue Aug 10 02:08:05 2021 81.0 F. 73.9 F.
Tue Aug 10 03:08:05 2021 80.0 F. 73.9 F.
Tue Aug 10 04:08:05 2021 80.0 F. 73.0 F.
Tue Aug 10 05:08:04 2021 81.0 F. 73.9 F.
Tue Aug 10 06:08:04 2021 78.0 F. 73.9 F.
Tue Aug 10 07:08:04 2021 78.0 F. 73.9 F.
Tue Aug 10 08:08:04 2021 78.0 F. 73.9 F.
Tue Aug 10 09:08:04 2021 81.0 F. 75.0 F.
Tue Aug 10 10:08:05 2021 82.0 F. 75.9 F.
Tue Aug 10 11:08:05 2021 84.0 F. 75.9 F.
Tue Aug 10 12:08:05 2021 87.0 F. 77.0 F.
Tue Aug 10 13:08:05 2021 89.0 F. 77.0 F.
Tue Aug 10 14:08:05 2021 91.0 F. 79.0 F.
Tue Aug 10 15:08:04 2021 89.0 F. 78.1 F.
Tue Aug 10 16:08:04 2021 89.0 F. 78.1 F.
Tue Aug 10 17:08:05 2021 81.0 F. 68.0 F.
Tue Aug 10 18:08:04 2021 81.0 F. 72.0 F.
Tue Aug 10 19:08:04 2021 85.0 F. 77.0 F.
Tue Aug 10 20:08:04 2021 85.0 F. 77.0 F.
Tue Aug 10 21:08:04 2021 85.0 F. 77.0 F.
Tue Aug 10 22:08:05 2021 83.0 F. 77.0 F.
Tue Aug 10 23:08:04 2021 83.0 F. 77.0 F.
Wed Aug 11 00:08:04 2021 83.0 F. 75.9 F.
Wed Aug 11 01:08:04 2021 82.0 F. 75.0 F.
Wed Aug 11 02:08:06 2021 81.0 F. 73.9 F.
Wed Aug 11 03:08:04 2021 81.0 F. 73.9 F.
Wed Aug 11 04:08:04 2021 80.0 F. 73.0 F.
Wed Aug 11 05:08:04 2021 79.0 F. 73.0 F.
Wed Aug 11 06:08:04 2021 77.0 F. 73.0 F.
Wed Aug 11 07:08:04 2021 76.0 F. 73.0 F.
Wed Aug 11 08:08:05 2021 76.0 F. 73.0 F.
Wed Aug 11 09:08:05 2021 82.0 F. 75.0 F.
Wed Aug 11 10:08:05 2021 85.0 F. 75.0 F.
Wed Aug 11 11:08:05 2021 85.0 F. 75.0 F.
Wed Aug 11 12:08:05 2021 89.0 F. 77.0 F.
Wed Aug 11 13:08:04 2021 89.0 F. 77.0 F.
Wed Aug 11 14:08:05 2021 91.0 F. 77.0 F.
Wed Aug 11 15:08:04 2021 91.0 F. 77.0 F.
Wed Aug 11 16:08:05 2021 91.0 F. 75.9 F.
Wed Aug 11 17:08:05 2021 91.0 F. 75.9 F.
Wed Aug 11 18:08:05 2021 90.0 F. 75.9 F.
Wed Aug 11 19:08:04 2021 88.0 F. 75.9 F.
Wed Aug 11 20:08:06 2021 85.0 F. 75.0 F.
Wed Aug 11 21:08:05 2021 84.0 F. 75.0 F.
Wed Aug 11 22:08:05 2021 84.0 F. 75.0 F.
Wed Aug 11 23:08:04 2021 84.0 F. 73.9 F.
Thu Aug 12 00:08:05 2021 84.0 F. 73.9 F.
Thu Aug 12 01:08:04 2021 81.0 F. 73.0 F.
Thu Aug 12 02:08:04 2021 80.0 F. 72.0 F.
Thu Aug 12 03:08:04 2021 80.0 F. 72.0 F.
Thu Aug 12 04:08:04 2021 80.0 F. 72.0 F.
Thu Aug 12 05:08:04 2021 78.0 F. 72.0 F.
Thu Aug 12 06:08:05 2021 78.0 F. 72.0 F.
Thu Aug 12 07:08:05 2021 78.0 F. 72.0 F.
Thu Aug 12 08:08:05 2021 80.0 F. 73.9 F.
Thu Aug 12 09:08:04 2021 80.0 F. 73.9 F.
Thu Aug 12 10:08:05 2021 83.0 F. 75.0 F.
Thu Aug 12 11:08:05 2021 88.0 F. 75.9 F.
Thu Aug 12 12:08:05 2021 90.0 F. 77.0 F.
Thu Aug 12 13:08:05 2021 90.0 F. 77.0 F.
Thu Aug 12 14:08:04 2021 90.0 F. 77.0 F.
Thu Aug 12 15:08:04 2021 92.0 F. 75.9 F.
Thu Aug 12 16:08:05 2021 92.0 F. 75.9 F.
Thu Aug 12 17:08:05 2021 92.0 F. 75.9 F.
Thu Aug 12 18:08:05 2021 90.0 F. 75.0 F.
Thu Aug 12 19:08:04 2021 88.0 F. 77.0 F.
Thu Aug 12 20:08:05 2021 88.0 F. 77.0 F.
Thu Aug 12 21:08:05 2021 84.0 F. 77.0 F.
Thu Aug 12 22:08:05 2021 76.0 F. 68.0 F.
Thu Aug 12 23:08:05 2021 71.0 F. 70.0 F.
Fri Aug 13 00:08:05 2021 71.0 F. 70.0 F.
Fri Aug 13 01:08:04 2021 71.0 F. 71.1 F.
Fri Aug 13 02:08:04 2021 72.0 F. 70.0 F.
Fri Aug 13 03:08:05 2021 71.0 F. 70.0 F.
Fri Aug 13 04:08:05 2021 72.0 F. 70.0 F.
Fri Aug 13 05:08:05 2021 71.0 F. 70.0 F.
Fri Aug 13 06:08:05 2021 71.0 F. 70.0 F.
Fri Aug 13 07:08:04 2021 70.0 F. 70.0 F.
Fri Aug 13 08:08:05 2021 70.0 F. 70.0 F.
Fri Aug 13 09:08:04 2021 72.0 F. 71.1 F.
Fri Aug 13 10:08:04 2021 76.0 F. 71.1 F.
Fri Aug 13 11:08:04 2021 81.0 F. 70.0 F.
Fri Aug 13 12:08:04 2021 83.0 F. 72.0 F.
Fri Aug 13 13:08:05 2021 83.0 F. 73.0 F.
Fri Aug 13 14:08:05 2021 83.0 F. 73.0 F.
Fri Aug 13 15:08:04 2021 82.0 F. 72.0 F.
Fri Aug 13 16:08:04 2021 82.0 F. 72.0 F.
Fri Aug 13 17:08:04 2021 84.0 F. 72.0 F.
Fri Aug 13 18:08:05 2021 84.0 F. 72.0 F.
Fri Aug 13 19:08:04 2021 81.0 F. 73.9 F.
Fri Aug 13 20:08:05 2021 78.0 F. 73.9 F.
Fri Aug 13 21:08:04 2021 78.0 F. 73.9 F.
Fri Aug 13 22:08:05 2021 76.0 F. 73.9 F.
Fri Aug 13 23:08:04 2021 76.0 F. 75.0 F.
Sat Aug 14 00:08:04 2021 75.0 F. 73.9 F.
Sat Aug 14 01:08:05 2021 75.0 F. 73.9 F.
Sat Aug 14 02:08:04 2021 75.0 F. 73.9 F.
Sat Aug 14 03:08:05 2021 75.0 F. 73.9 F.
Sat Aug 14 04:08:05 2021 75.0 F. 73.0 F.
Sat Aug 14 05:08:04 2021 74.0 F. 70.0 F.
Sat Aug 14 06:08:05 2021 74.0 F. 70.0 F.
Sat Aug 14 07:08:04 2021 73.0 F. 68.0 F.
Sat Aug 14 08:08:05 2021 73.0 F. 68.0 F.
Sat Aug 14 09:08:04 2021 74.0 F. 66.0 F.
Sat Aug 14 10:08:04 2021 76.0 F. 66.9 F.
Sat Aug 14 11:08:05 2021 76.0 F. 66.9 F.
Sat Aug 14 12:08:05 2021 80.0 F. 66.0 F.
Sat Aug 14 13:08:04 2021 83.0 F. 64.0 F.
Sat Aug 14 14:08:05 2021 83.0 F. 64.0 F.
Sat Aug 14 15:08:05 2021 85.0 F. 63.0 F.
Sat Aug 14 16:08:05 2021 85.0 F. 64.0 F.
Sat Aug 14 17:08:05 2021 85.0 F. 64.0 F.
Sat Aug 14 18:08:04 2021 82.0 F. 63.0 F.
Sat Aug 14 19:08:04 2021 80.0 F. 62.1 F.
Sat Aug 14 20:08:04 2021 77.0 F. 62.1 F.
Sat Aug 14 21:08:04 2021 71.0 F. 64.0 F.
Sat Aug 14 22:08:04 2021 69.0 F. 64.9 F.
Sat Aug 14 23:08:04 2021 69.0 F. 64.9 F.
Sun Aug 15 00:08:04 2021 67.0 F. 64.9 F.
Sun Aug 15 01:08:04 2021 67.0 F. 64.9 F.
Sun Aug 15 02:08:04 2021 66.0 F. 64.0 F.
Sun Aug 15 03:08:05 2021 66.0 F. 64.0 F.
Sun Aug 15 04:08:05 2021 65.0 F. 64.0 F.
Sun Aug 15 05:08:04 2021 64.0 F. 63.0 F.
Sun Aug 15 06:08:04 2021 64.0 F. 63.0 F.
Sun Aug 15 07:08:04 2021 64.0 F. 64.0 F.
Sun Aug 15 08:08:04 2021 64.0 F. 64.0 F.
Sun Aug 15 09:08:04 2021 72.0 F. 64.0 F.
Sun Aug 15 10:08:04 2021 73.0 F. 64.9 F.
Sun Aug 15 11:08:04 2021 73.0 F. 64.9 F.
Sun Aug 15 12:08:05 2021 76.0 F. 66.0 F.
Sun Aug 15 13:08:04 2021 79.0 F. 66.9 F.
Sun Aug 15 14:08:05 2021 80.0 F. 68.0 F.
Sun Aug 15 15:08:04 2021 81.0 F. 66.9 F.
Sun Aug 15 16:08:04 2021 81.0 F. 68.0 F.
Sun Aug 15 17:08:05 2021 81.0 F. 68.0 F.
Sun Aug 15 18:08:04 2021 80.0 F. 66.9 F.
Sun Aug 15 19:08:05 2021 80.0 F. 66.9 F.
Sun Aug 15 20:08:04 2021 75.0 F. 68.0 F.
Sun Aug 15 21:08:04 2021 72.0 F. 69.1 F.
Sun Aug 15 22:08:04 2021 73.0 F. 70.0 F.
Sun Aug 15 23:08:05 2021 70.0 F. 69.1 F.
Mon Aug 16 00:08:04 2021 69.0 F. 68.0 F.
Mon Aug 16 01:08:05 2021 69.0 F. 68.0 F.
Mon Aug 16 02:08:05 2021 69.0 F. 68.0 F.
Mon Aug 16 03:08:04 2021 68.0 F. 68.0 F.
Mon Aug 16 04:08:05 2021 68.0 F. 68.0 F.
Mon Aug 16 05:08:05 2021 68.0 F. 66.9 F.
Mon Aug 16 06:08:05 2021 68.0 F. 66.9 F.
Mon Aug 16 07:08:04 2021 69.0 F. 68.0 F.
Mon Aug 16 08:08:04 2021 71.0 F. 69.1 F.
Mon Aug 16 09:08:04 2021 73.0 F. 69.1 F.
Mon Aug 16 10:08:04 2021 73.0 F. 69.1 F.
Mon Aug 16 11:08:05 2021 76.0 F. 70.0 F.
Mon Aug 16 12:08:05 2021 78.0 F. 69.1 F.
Mon Aug 16 13:08:04 2021 81.0 F. 68.0 F.
Mon Aug 16 14:08:04 2021 81.0 F. 68.0 F.
Mon Aug 16 15:08:04 2021 84.0 F. 68.0 F.
Mon Aug 16 16:08:04 2021 84.0 F. 66.0 F.
Mon Aug 16 17:08:05 2021 86.0 F. 68.0 F.
Mon Aug 16 18:08:04 2021 84.0 F. 66.0 F.
Mon Aug 16 19:08:04 2021 82.0 F. 68.0 F.
Mon Aug 16 20:08:05 2021 77.0 F. 70.0 F.
Mon Aug 16 21:08:04 2021 77.0 F. 70.0 F.
Mon Aug 16 22:08:05 2021 73.0 F. 70.0 F.
Mon Aug 16 23:08:04 2021 68.0 F. 66.9 F.
Tue Aug 17 00:08:04 2021 68.0 F. 66.9 F.
Tue Aug 17 01:08:05 2021 66.0 F. 66.0 F.
Tue Aug 17 02:08:04 2021 66.0 F. 66.0 F.
Tue Aug 17 03:08:05 2021 65.0 F. 64.9 F.
Tue Aug 17 04:08:04 2021 65.0 F. 64.9 F.
Tue Aug 17 05:08:04 2021 65.0 F. 64.9 F.
Tue Aug 17 06:08:04 2021 65.0 F. 64.9 F.
Tue Aug 17 07:08:04 2021 63.0 F. 63.0 F.
Tue Aug 17 08:08:05 2021 64.0 F. 64.0 F.
Tue Aug 17 09:08:05 2021 69.0 F. 68.0 F.
Tue Aug 17 10:08:05 2021 72.0 F. 71.1 F.
Tue Aug 17 11:08:04 2021 79.0 F. 71.1 F.
Tue Aug 17 12:08:04 2021 85.0 F. 69.1 F.
Tue Aug 17 13:08:05 2021 83.0 F. 66.9 F.
Tue Aug 17 14:08:04 2021 86.0 F. 64.9 F.
Tue Aug 17 15:08:05 2021 87.0 F. 66.9 F.
Tue Aug 17 16:08:05 2021 87.0 F. 66.9 F.
Tue Aug 17 17:08:05 2021 87.0 F. 66.0 F.
Tue Aug 17 18:08:05 2021 86.0 F. 66.0 F.
Tue Aug 17 19:08:05 2021 83.0 F. 68.0 F.
Tue Aug 17 20:08:05 2021 83.0 F. 68.0 F.
Tue Aug 17 21:08:05 2021 74.0 F. 71.1 F.
Tue Aug 17 22:08:05 2021 70.0 F. 69.1 F.
Tue Aug 17 23:08:04 2021 68.0 F. 68.0 F.
Wed Aug 18 00:08:05 2021 67.0 F. 66.9 F.
Wed Aug 18 01:08:04 2021 67.0 F. 66.0 F.
Wed Aug 18 02:08:05 2021 66.0 F. 64.9 F.
Wed Aug 18 03:08:04 2021 67.0 F. 66.9 F.
Wed Aug 18 04:08:05 2021 67.0 F. 66.9 F.
Wed Aug 18 05:08:04 2021 68.0 F. 66.9 F.
Wed Aug 18 06:08:04 2021 68.0 F. 68.0 F.
Wed Aug 18 07:08:04 2021 68.0 F. 68.0 F.
Wed Aug 18 08:08:05 2021 70.0 F. 70.0 F.
Wed Aug 18 09:08:05 2021 73.0 F. 71.1 F.
Wed Aug 18 10:08:05 2021 73.0 F. 71.1 F.
Wed Aug 18 11:08:05 2021 77.0 F. 72.0 F.
Wed Aug 18 12:08:07 2021 79.0 F. 73.0 F.
Wed Aug 18 13:08:04 2021 79.0 F. 73.0 F.
Wed Aug 18 14:08:06 2021 80.0 F. 72.0 F.
Wed Aug 18 15:08:04 2021 80.0 F. 71.1 F.
Wed Aug 18 16:08:04 2021 79.0 F. 72.0 F.
Wed Aug 18 17:08:05 2021 79.0 F. 69.1 F.
Wed Aug 18 18:08:04 2021 78.0 F. 72.0 F.
Wed Aug 18 19:08:05 2021 78.0 F. 72.0 F.
Wed Aug 18 20:08:05 2021 76.0 F. 71.1 F.
Wed Aug 18 21:08:05 2021 72.0 F. 71.1 F.
Wed Aug 18 22:08:06 2021 72.0 F. 71.1 F.
Wed Aug 18 23:08:04 2021 71.0 F. 71.1 F.
Thu Aug 19 00:08:06 2021 71.0 F. 71.1 F.
Thu Aug 19 01:08:04 2021 71.0 F. 70.0 F.
Thu Aug 19 02:08:04 2021 71.0 F. 70.0 F.
Thu Aug 19 03:08:04 2021 70.0 F. 69.1 F.
Thu Aug 19 04:08:05 2021 69.0 F. 69.1 F.
Thu Aug 19 05:08:05 2021 69.0 F. 69.1 F.
Thu Aug 19 06:08:05 2021 69.0 F. 69.1 F.
Thu Aug 19 07:08:04 2021 71.0 F. 70.0 F.
Thu Aug 19 08:08:05 2021 71.0 F. 70.0 F.
Thu Aug 19 09:08:05 2021 73.0 F. 72.0 F.
Thu Aug 19 10:08:05 2021 79.0 F. 72.0 F.
Thu Aug 19 11:08:05 2021 80.0 F. 72.0 F.
Thu Aug 19 12:08:04 2021 80.0 F. 72.0 F.
Thu Aug 19 13:08:04 2021 85.0 F. 71.1 F.
Thu Aug 19 14:08:04 2021 85.0 F. 71.1 F.
Thu Aug 19 15:08:04 2021 85.0 F. 72.0 F.
Thu Aug 19 16:08:05 2021 86.0 F. 72.0 F.
Thu Aug 19 17:08:04 2021 86.0 F. 72.0 F.
Thu Aug 19 18:08:05 2021 88.0 F. 72.0 F.
Thu Aug 19 19:08:05 2021 83.0 F. 73.0 F.
Thu Aug 19 20:08:04 2021 77.0 F. 73.9 F.
Thu Aug 19 21:08:04 2021 77.0 F. 73.9 F.
Thu Aug 19 22:08:05 2021 74.0 F. 72.0 F.
Thu Aug 19 23:08:04 2021 73.0 F. 71.1 F.
Fri Aug 20 00:08:04 2021 72.0 F. 71.1 F.
Fri Aug 20 01:08:05 2021 72.0 F. 71.1 F.
Fri Aug 20 02:08:05 2021 71.0 F. 70.0 F.
Fri Aug 20 03:08:04 2021 69.0 F. 69.1 F.
Fri Aug 20 04:08:05 2021 69.0 F. 69.1 F.
Fri Aug 20 05:08:04 2021 67.0 F. 66.9 F.
Fri Aug 20 06:08:05 2021 67.0 F. 66.9 F.
Fri Aug 20 07:08:05 2021 69.0 F. 69.1 F.
Fri Aug 20 08:08:05 2021 70.0 F. 70.0 F.
Fri Aug 20 09:08:04 2021 73.0 F. 73.0 F.
Fri Aug 20 10:08:05 2021 76.0 F. 75.0 F.
Fri Aug 20 11:08:04 2021 82.0 F. 75.0 F.
Fri Aug 20 12:08:05 2021 82.0 F. 75.0 F.
Fri Aug 20 13:08:04 2021 85.0 F. 75.0 F.
Fri Aug 20 14:08:04 2021 86.0 F. 75.9 F.
Fri Aug 20 15:08:05 2021 86.0 F. 73.9 F.
Fri Aug 20 16:08:05 2021 84.0 F. 73.9 F.
Fri Aug 20 17:08:06 2021 84.0 F. 73.9 F.
Fri Aug 20 18:08:05 2021 80.0 F. 72.0 F.
Fri Aug 20 19:08:04 2021 80.0 F. 72.0 F.
Fri Aug 20 20:08:04 2021 79.0 F. 73.0 F.
Fri Aug 20 21:08:04 2021 78.0 F. 72.0 F.
Fri Aug 20 22:08:04 2021 75.0 F. 73.0 F.
Fri Aug 20 23:08:04 2021 74.0 F. 73.0 F.
Sat Aug 21 00:08:04 2021 74.0 F. 73.0 F.
Sat Aug 21 01:08:05 2021 75.0 F. 73.9 F.
Sat Aug 21 02:08:04 2021 75.0 F. 73.9 F.
Sat Aug 21 03:08:04 2021 75.0 F. 75.0 F.
Sat Aug 21 04:08:04 2021 75.0 F. 75.0 F.
Sat Aug 21 05:08:05 2021 76.0 F. 75.0 F.
Sat Aug 21 06:08:04 2021 76.0 F. 75.0 F.
Sat Aug 21 07:08:04 2021 75.0 F. 75.0 F.
Sat Aug 21 08:08:04 2021 75.0 F. 75.0 F.
Sat Aug 21 09:08:04 2021 76.0 F. 75.9 F.
Sat Aug 21 10:08:05 2021 77.0 F. 75.9 F.
Sat Aug 21 11:08:04 2021 78.0 F. 75.9 F.
Sat Aug 21 12:08:05 2021 80.0 F. 75.0 F.
Sat Aug 21 13:08:04 2021 78.0 F. 75.9 F.
Sat Aug 21 14:08:05 2021 78.0 F. 75.9 F.
Sat Aug 21 15:08:05 2021 85.0 F. 78.1 F.
Sat Aug 21 16:08:04 2021 85.0 F. 78.1 F.
Sat Aug 21 17:08:05 2021 77.0 F. 72.0 F.
Sat Aug 21 18:08:04 2021 78.0 F. 73.0 F.
Sat Aug 21 19:08:05 2021 79.0 F. 75.0 F.
Sat Aug 21 20:08:05 2021 75.0 F. 75.0 F.
Sat Aug 21 21:08:05 2021 74.0 F. 73.9 F.
Sat Aug 21 22:08:05 2021 73.0 F. 73.0 F.
Sat Aug 21 23:08:04 2021 73.0 F. 73.0 F.
Sun Aug 22 00:08:04 2021 72.0 F. 72.0 F.
Sun Aug 22 01:08:05 2021 72.0 F. 72.0 F.
Sun Aug 22 02:08:04 2021 72.0 F. 72.0 F.
Sun Aug 22 03:08:05 2021 71.0 F. 71.1 F.
Sun Aug 22 04:08:04 2021 71.0 F. 71.1 F.
Sun Aug 22 05:08:05 2021 70.0 F. 70.0 F.
Sun Aug 22 06:08:04 2021 71.0 F. 71.1 F.
Sun Aug 22 07:08:05 2021 70.0 F. 70.0 F.
Sun Aug 22 08:08:04 2021 73.0 F. 72.0 F.
Sun Aug 22 09:08:05 2021 75.0 F. 73.9 F.
Sun Aug 22 10:08:04 2021 78.0 F. 73.9 F.
Sun Aug 22 11:08:04 2021 80.0 F. 73.9 F.
Sun Aug 22 12:08:05 2021 82.0 F. 75.0 F.
Sun Aug 22 13:08:05 2021 85.0 F. 73.9 F.
Sun Aug 22 14:08:05 2021 87.0 F. 73.9 F.
Sun Aug 22 15:08:05 2021 88.0 F. 73.0 F.
Sun Aug 22 16:08:04 2021 88.0 F. 73.0 F.
Sun Aug 22 17:08:04 2021 88.0 F. 73.0 F.
Sun Aug 22 18:08:05 2021 88.0 F. 73.0 F.
Sun Aug 22 19:08:04 2021 86.0 F. 75.0 F.
Sun Aug 22 20:08:05 2021 77.0 F. 75.9 F.
Sun Aug 22 21:08:04 2021 75.0 F. 73.9 F.
Sun Aug 22 22:08:05 2021 74.0 F. 73.9 F.
Sun Aug 22 23:08:05 2021 74.0 F. 73.9 F.
Mon Aug 23 00:08:05 2021 71.0 F. 71.1 F.
Mon Aug 23 01:08:04 2021 71.0 F. 71.1 F.
Mon Aug 23 02:08:04 2021 70.0 F. 70.0 F.
Mon Aug 23 03:08:04 2021 69.0 F. 69.1 F.
Mon Aug 23 04:08:05 2021 68.0 F. 68.0 F.
Mon Aug 23 05:08:24 2021 68.0 F. 68.0 F.
Mon Aug 23 06:08:05 2021 68.0 F. 68.0 F.
Mon Aug 23 07:08:05 2021 68.0 F. 68.0 F.
Mon Aug 23 08:08:04 2021 74.0 F. 73.0 F.
Mon Aug 23 09:08:04 2021 79.0 F. 75.0 F.
Mon Aug 23 10:08:04 2021 84.0 F. 75.9 F.
Mon Aug 23 11:08:04 2021 86.0 F. 75.0 F.
Mon Aug 23 12:08:04 2021 87.0 F. 75.0 F.
Mon Aug 23 13:08:04 2021 89.0 F. 73.9 F.
Mon Aug 23 14:08:04 2021 90.0 F. 73.9 F.
Mon Aug 23 15:08:05 2021 90.0 F. 73.9 F.
Mon Aug 23 16:08:04 2021 91.0 F. 75.0 F.
Mon Aug 23 17:08:05 2021 89.0 F. 73.0 F.
Mon Aug 23 18:08:05 2021 84.0 F. 75.0 F.
Mon Aug 23 19:08:05 2021 79.0 F. 69.1 F.
Mon Aug 23 20:08:05 2021 79.0 F. 69.1 F.
Mon Aug 23 21:08:05 2021 75.0 F. 70.0 F.
Mon Aug 23 22:08:05 2021 75.0 F. 70.0 F.
Mon Aug 23 23:08:04 2021 73.0 F. 72.0 F.
Tue Aug 24 00:08:04 2021 73.0 F. 71.1 F.
Tue Aug 24 01:08:05 2021 73.0 F. 71.1 F.
Tue Aug 24 02:08:04 2021 72.0 F. 71.1 F.
Tue Aug 24 03:08:05 2021 71.0 F. 71.1 F.
Tue Aug 24 04:08:05 2021 72.0 F. 71.1 F.
Tue Aug 24 05:08:05 2021 71.0 F. 70.0 F.
Tue Aug 24 06:08:04 2021 70.0 F. 69.1 F.
Tue Aug 24 07:08:04 2021 69.0 F. 69.1 F.
Tue Aug 24 08:08:04 2021 70.0 F. 70.0 F.
Tue Aug 24 09:08:05 2021 82.0 F. 75.9 F.
Tue Aug 24 10:08:04 2021 86.0 F. 75.9 F.
Tue Aug 24 11:08:05 2021 88.0 F. 77.0 F.
Tue Aug 24 12:08:05 2021 88.0 F. 77.0 F.
Tue Aug 24 13:08:04 2021 90.0 F. 75.9 F.
Tue Aug 24 14:08:05 2021 91.0 F. 75.9 F.
Tue Aug 24 15:08:06 2021 93.0 F. 75.9 F.
Tue Aug 24 16:08:04 2021 93.0 F. 75.9 F.
Tue Aug 24 17:08:05 2021 92.0 F. 75.9 F.
Tue Aug 24 18:08:05 2021 92.0 F. 75.0 F.
Tue Aug 24 19:08:05 2021 87.0 F. 73.9 F.
Tue Aug 24 20:08:06 2021 87.0 F. 73.9 F.
Tue Aug 24 21:08:04 2021 81.0 F. 75.0 F.
Tue Aug 24 22:08:04 2021 78.0 F. 75.0 F.
Tue Aug 24 23:08:05 2021 74.0 F. 73.0 F.
Wed Aug 25 00:08:04 2021 74.0 F. 73.0 F.
Wed Aug 25 01:08:04 2021 73.0 F. 73.0 F.
Wed Aug 25 02:08:04 2021 73.0 F. 72.0 F.
Wed Aug 25 03:08:04 2021 73.0 F. 72.0 F.
Wed Aug 25 04:08:04 2021 72.0 F. 72.0 F.
Wed Aug 25 05:08:05 2021 71.0 F. 71.1 F.
Wed Aug 25 06:08:04 2021 71.0 F. 71.1 F.
Wed Aug 25 07:08:05 2021 72.0 F. 72.0 F.
Wed Aug 25 08:08:05 2021 72.0 F. 72.0 F.
Wed Aug 25 09:08:05 2021 77.0 F. 75.0 F.
Wed Aug 25 10:08:04 2021 86.0 F. 75.9 F.
Wed Aug 25 11:08:04 2021 89.0 F. 75.0 F.
Wed Aug 25 12:08:04 2021 89.0 F. 75.0 F.
Wed Aug 25 13:08:05 2021 91.0 F. 75.0 F.
Wed Aug 25 14:08:05 2021 93.0 F. 75.9 F.
Wed Aug 25 15:08:05 2021 93.0 F. 75.9 F.
Wed Aug 25 16:08:04 2021 94.0 F. 77.0 F.
Wed Aug 25 17:08:04 2021 94.0 F. 77.0 F.
Wed Aug 25 18:08:04 2021 87.0 F. 77.0 F.
Wed Aug 25 19:08:04 2021 87.0 F. 77.0 F.
Wed Aug 25 20:08:05 2021 80.0 F. 77.0 F.
Wed Aug 25 21:08:05 2021 78.0 F. 75.9 F.
Wed Aug 25 22:08:04 2021 76.0 F. 75.0 F.
Wed Aug 25 23:08:04 2021 75.0 F. 73.9 F.
Thu Aug 26 00:08:05 2021 74.0 F. 73.9 F.
Thu Aug 26 01:08:05 2021 75.0 F. 73.9 F.
Thu Aug 26 02:08:04 2021 75.0 F. 73.9 F.
Thu Aug 26 03:08:05 2021 73.0 F. 73.0 F.
Thu Aug 26 04:08:04 2021 72.0 F. 72.0 F.
Thu Aug 26 05:08:04 2021 72.0 F. 72.0 F.
Thu Aug 26 06:08:04 2021 71.0 F. 71.1 F.
Thu Aug 26 07:08:04 2021 71.0 F. 71.1 F.
Thu Aug 26 08:08:05 2021 71.0 F. 71.1 F.
Thu Aug 26 09:08:05 2021 76.0 F. 75.0 F.
Thu Aug 26 10:08:05 2021 81.0 F. 75.9 F.
Thu Aug 26 11:08:04 2021 89.0 F. 75.0 F.
Thu Aug 26 12:08:05 2021 89.0 F. 75.0 F.
Thu Aug 26 13:08:05 2021 91.0 F. 75.0 F.
Thu Aug 26 14:08:04 2021 91.0 F. 73.0 F.
Thu Aug 26 15:08:05 2021 93.0 F. 72.0 F.
Thu Aug 26 16:08:05 2021 93.0 F. 72.0 F.
Thu Aug 26 17:08:04 2021 93.0 F. 73.0 F.
Thu Aug 26 18:08:05 2021 92.0 F. 73.0 F.
Thu Aug 26 19:08:05 2021 92.0 F. 73.0 F.
Thu Aug 26 20:08:05 2021 88.0 F. 73.0 F.
Thu Aug 26 21:08:04 2021 80.0 F. 77.0 F.
Thu Aug 26 22:08:04 2021 77.0 F. 75.9 F.
Thu Aug 26 23:08:04 2021 77.0 F. 75.0 F.
Fri Aug 27 00:08:05 2021 76.0 F. 73.9 F.
Fri Aug 27 01:08:04 2021 75.0 F. 73.9 F.
Fri Aug 27 02:08:04 2021 73.0 F. 72.0 F.
Fri Aug 27 03:08:04 2021 72.0 F. 72.0 F.
Fri Aug 27 04:08:05 2021 72.0 F. 72.0 F.
Fri Aug 27 05:08:05 2021 72.0 F. 72.0 F.
Fri Aug 27 06:08:05 2021 72.0 F. 72.0 F.
Fri Aug 27 07:08:04 2021 71.0 F. 71.1 F.
Fri Aug 27 08:08:04 2021 72.0 F. 72.0 F.
Fri Aug 27 09:08:04 2021 77.0 F. 75.0 F.
Fri Aug 27 10:08:05 2021 81.0 F. 75.9 F.
Fri Aug 27 11:08:05 2021 89.0 F. 77.0 F.
Fri Aug 27 12:08:04 2021 90.0 F. 75.9 F.
Fri Aug 27 13:08:05 2021 90.0 F. 75.9 F.
Fri Aug 27 14:08:04 2021 92.0 F. 73.9 F.
Fri Aug 27 15:08:05 2021 91.0 F. 73.9 F.
Fri Aug 27 16:08:04 2021 92.0 F. 75.0 F.
Fri Aug 27 17:08:04 2021 90.0 F. 73.9 F.
Fri Aug 27 18:08:04 2021 90.0 F. 73.9 F.
Fri Aug 27 19:08:05 2021 89.0 F. 72.0 F.
Fri Aug 27 20:08:04 2021 86.0 F. 72.0 F.
Fri Aug 27 21:08:04 2021 79.0 F. 73.9 F.
Fri Aug 27 22:08:04 2021 79.0 F. 73.9 F.
Fri Aug 27 23:08:05 2021 76.0 F. 73.9 F.
Sat Aug 28 00:08:05 2021 73.0 F. 72.0 F.
Sat Aug 28 01:08:05 2021 72.0 F. 72.0 F.
Sat Aug 28 02:08:05 2021 71.0 F. 70.0 F.
Sat Aug 28 03:08:04 2021 71.0 F. 70.0 F.
Sat Aug 28 04:08:04 2021 69.0 F. 69.1 F.
Sat Aug 28 05:08:05 2021 69.0 F. 69.1 F.
Sat Aug 28 06:08:04 2021 69.0 F. 69.1 F.
Sat Aug 28 07:08:04 2021 69.0 F. 69.1 F.
Sat Aug 28 08:08:05 2021 70.0 F. 69.1 F.
Sat Aug 28 09:08:04 2021 80.0 F. 73.9 F.
Sat Aug 28 10:08:04 2021 80.0 F. 73.9 F.
Sat Aug 28 11:08:04 2021 84.0 F. 73.9 F.
Sat Aug 28 12:08:05 2021 89.0 F. 75.0 F.
Sat Aug 28 13:08:04 2021 89.0 F. 75.0 F.
Sat Aug 28 14:08:05 2021 91.0 F. 73.0 F.
Sat Aug 28 15:08:04 2021 91.0 F. 73.0 F.
Sat Aug 28 16:08:04 2021 91.0 F. 72.0 F.
Sat Aug 28 17:08:05 2021 92.0 F. 71.1 F.
Sat Aug 28 18:08:04 2021 80.0 F. 77.0 F.
Sat Aug 28 19:08:05 2021 87.0 F. 75.0 F.
Sat Aug 28 20:08:05 2021 85.0 F. 75.0 F.
Sat Aug 28 21:08:05 2021 79.0 F. 75.0 F.
Sat Aug 28 22:08:04 2021 77.0 F. 75.0 F.
Sat Aug 28 23:08:04 2021 76.0 F. 73.9 F.
Sun Aug 29 00:08:05 2021 75.0 F. 73.9 F.
Sun Aug 29 01:08:05 2021 73.0 F. 73.0 F.
Sun Aug 29 02:08:04 2021 72.0 F. 72.0 F.
Sun Aug 29 03:08:05 2021 72.0 F. 72.0 F.
Sun Aug 29 04:08:05 2021 72.0 F. 72.0 F.
Sun Aug 29 05:08:04 2021 73.0 F. 73.0 F.
Sun Aug 29 06:08:05 2021 72.0 F. 71.1 F.
Sun Aug 29 07:08:05 2021 72.0 F. 72.0 F.
Sun Aug 29 08:08:04 2021 72.0 F. 72.0 F.
Sun Aug 29 09:08:04 2021 77.0 F. 75.9 F.
Sun Aug 29 10:08:05 2021 85.0 F. 75.0 F.
Sun Aug 29 11:08:05 2021 87.0 F. 75.0 F.
Sun Aug 29 12:08:04 2021 87.0 F. 75.0 F.
Sun Aug 29 13:08:04 2021 88.0 F. 75.0 F.
Sun Aug 29 14:08:04 2021 90.0 F. 75.0 F.
Sun Aug 29 15:08:04 2021 86.0 F. 75.9 F.
Sun Aug 29 16:08:05 2021 87.0 F. 75.9 F.
Sun Aug 29 17:08:04 2021 87.0 F. 75.9 F.
Sun Aug 29 18:08:05 2021 86.0 F. 75.9 F.
Sun Aug 29 19:08:04 2021 85.0 F. 77.0 F.
Sun Aug 29 20:08:04 2021 85.0 F. 75.9 F.
Sun Aug 29 21:08:04 2021 80.0 F. 77.0 F.
Sun Aug 29 22:08:04 2021 77.0 F. 75.9 F.
Sun Aug 29 23:08:04 2021 77.0 F. 75.9 F.
Mon Aug 30 00:08:05 2021 76.0 F. 75.0 F.
Mon Aug 30 01:08:04 2021 74.0 F. 73.9 F.
Mon Aug 30 02:08:04 2021 75.0 F. 75.0 F.
Mon Aug 30 03:08:04 2021 74.0 F. 73.9 F.
Mon Aug 30 04:08:04 2021 75.0 F. 73.9 F.
Mon Aug 30 05:08:04 2021 75.0 F. 73.9 F.
Mon Aug 30 06:08:05 2021 74.0 F. 73.0 F.
Mon Aug 30 07:08:05 2021 74.0 F. 73.0 F.
Mon Aug 30 08:08:05 2021 74.0 F. 73.0 F.
Mon Aug 30 09:08:04 2021 77.0 F. 73.9 F.
Mon Aug 30 10:08:04 2021 79.0 F. 73.0 F.
Mon Aug 30 11:08:04 2021 83.0 F. 73.0 F.
Mon Aug 30 12:08:04 2021 83.0 F. 73.0 F.
Mon Aug 30 13:08:05 2021 85.0 F. 73.9 F.
Mon Aug 30 14:08:04 2021 88.0 F. 73.0 F.
Mon Aug 30 15:08:05 2021 87.0 F. 73.0 F.
Mon Aug 30 16:08:05 2021 84.0 F. 73.0 F.
Mon Aug 30 17:08:04 2021 84.0 F. 73.0 F.
Mon Aug 30 18:08:05 2021 83.0 F. 73.0 F.
Mon Aug 30 19:08:04 2021 77.0 F. 71.1 F.
Mon Aug 30 20:08:04 2021 76.0 F. 72.0 F.
Mon Aug 30 21:08:04 2021 74.0 F. 73.9 F.
Mon Aug 30 22:08:04 2021 74.0 F. 73.0 F.
Mon Aug 30 23:08:04 2021 73.0 F. 72.0 F.
Tue Aug 31 00:08:04 2021 73.0 F. 72.0 F.
Tue Aug 31 01:08:05 2021 72.0 F. 72.0 F.
Tue Aug 31 02:08:04 2021 72.0 F. 72.0 F.
Tue Aug 31 03:08:04 2021 70.0 F. 69.1 F.
Tue Aug 31 04:08:04 2021 70.0 F. 70.0 F.
Tue Aug 31 05:08:05 2021 70.0 F. 70.0 F.
Tue Aug 31 06:08:10 2021 71.0 F. 71.1 F.
Tue Aug 31 07:10:05 2021 71.0 F. 70.0 F.
Tue Aug 31 08:08:05 2021 71.0 F. 70.0 F.
Tue Aug 31 09:08:06 2021 72.0 F. 69.1 F.
Tue Aug 31 10:08:04 2021 75.0 F. 69.1 F.
Tue Aug 31 11:08:04 2021 76.0 F. 69.1 F.
Tue Aug 31 12:08:05 2021 79.0 F. 70.0 F.
Tue Aug 31 13:08:05 2021 79.0 F. 70.0 F.
Tue Aug 31 14:08:05 2021 83.0 F. 68.0 F.
Tue Aug 31 15:08:04 2021 85.0 F. 69.1 F.
Tue Aug 31 16:08:04 2021 85.0 F. 69.1 F.
Tue Aug 31 17:08:04 2021 85.0 F. 69.1 F.
Tue Aug 31 18:08:04 2021 85.0 F. 69.1 F.
Tue Aug 31 19:08:04 2021 82.0 F. 70.0 F.
Tue Aug 31 20:08:04 2021 82.0 F. 70.0 F.
Tue Aug 31 21:08:05 2021 75.0 F. 71.1 F.
Tue Aug 31 22:08:04 2021 73.0 F. 71.1 F.
Tue Aug 31 23:08:05 2021 71.0 F. 71.1 F.
Wed Sep 1 00:08:04 2021 73.0 F. 72.0 F.
Wed Sep 1 01:08:04 2021 73.0 F. 72.0 F.
Wed Sep 1 02:08:04 2021 72.0 F. 71.1 F.
Wed Sep 1 03:08:04 2021 73.0 F. 71.1 F.
Wed Sep 1 04:08:04 2021 73.0 F. 71.1 F.
Wed Sep 1 05:08:04 2021 71.0 F. 70.0 F.
Wed Sep 1 06:08:05 2021 71.0 F. 70.0 F.
Wed Sep 1 07:08:04 2021 71.0 F. 70.0 F.
Wed Sep 1 08:08:05 2021 73.0 F. 71.1 F.
Wed Sep 1 09:08:04 2021 73.0 F. 71.1 F.
Wed Sep 1 10:08:05 2021 72.0 F. 71.1 F.
Wed Sep 1 11:08:04 2021 78.0 F. 70.0 F.
Wed Sep 1 12:08:04 2021 78.0 F. 70.0 F.
Wed Sep 1 13:08:05 2021 79.0 F. 69.1 F.
Wed Sep 1 14:08:04 2021 81.0 F. 66.9 F.
Wed Sep 1 15:08:05 2021 82.0 F. 64.0 F.
Wed Sep 1 16:08:05 2021 85.0 F. 63.0 F.
Wed Sep 1 17:08:05 2021 85.0 F. 63.0 F.
Wed Sep 1 18:08:04 2021 84.0 F. 63.0 F.
Wed Sep 1 19:08:04 2021 79.0 F. 64.0 F.
Wed Sep 1 20:08:05 2021 79.0 F. 64.0 F.
Wed Sep 1 21:08:04 2021 72.0 F. 63.0 F.
Wed Sep 1 22:08:04 2021 67.0 F. 62.1 F.
Wed Sep 1 23:08:04 2021 67.0 F. 62.1 F.
Thu Sep 2 00:08:04 2021 62.0 F. 61.0 F.
Thu Sep 2 01:08:05 2021 60.0 F. 59.0 F.
Thu Sep 2 02:08:05 2021 60.0 F. 59.0 F.
Thu Sep 2 03:08:05 2021 58.0 F. 57.9 F.
Thu Sep 2 04:08:04 2021 59.0 F. 57.9 F.
Thu Sep 2 05:08:05 2021 58.0 F. 57.0 F.
Thu Sep 2 06:08:04 2021 57.0 F. 55.9 F.
Thu Sep 2 07:08:05 2021 54.0 F. 53.1 F.
Thu Sep 2 08:08:04 2021 54.0 F. 54.0 F.
Thu Sep 2 09:08:05 2021 61.0 F. 60.1 F.
Thu Sep 2 10:08:05 2021 66.0 F. 61.0 F.
Thu Sep 2 11:08:05 2021 73.0 F. 60.1 F.
Thu Sep 2 12:08:04 2021 77.0 F. 59.0 F.
Thu Sep 2 13:08:04 2021 79.0 F. 55.9 F.
Thu Sep 2 14:08:05 2021 79.0 F. 55.9 F.
Thu Sep 2 15:08:04 2021 81.0 F. 57.0 F.
Thu Sep 2 16:08:05 2021 82.0 F. 59.0 F.
Thu Sep 2 17:08:05 2021 83.0 F. 59.0 F.
Thu Sep 2 18:08:05 2021 83.0 F. 59.0 F.
Thu Sep 2 19:08:05 2021 74.0 F. 61.0 F.
Thu Sep 2 20:08:05 2021 67.0 F. 63.0 F.
Thu Sep 2 21:08:05 2021 67.0 F. 63.0 F.
Thu Sep 2 22:08:05 2021 65.0 F. 62.1 F.
Thu Sep 2 23:08:05 2021 64.0 F. 62.1 F.
Fri Sep 3 00:08:05 2021 62.0 F. 61.0 F.
Fri Sep 3 01:08:05 2021 60.0 F. 59.0 F.
Fri Sep 3 02:08:05 2021 59.0 F. 57.9 F.
Fri Sep 3 03:08:04 2021 59.0 F. 57.9 F.
Fri Sep 3 04:08:05 2021 58.0 F. 57.9 F.
Fri Sep 3 05:08:04 2021 57.0 F. 55.9 F.
Fri Sep 3 06:08:05 2021 57.0 F. 55.9 F.
Fri Sep 3 07:08:05 2021 57.0 F. 55.9 F.
Fri Sep 3 08:08:04 2021 55.0 F. 55.0 F.
Fri Sep 3 09:08:10 2021 67.0 F. 63.0 F.
Fri Sep 3 10:08:04 2021 67.0 F. 63.0 F.
Fri Sep 3 11:08:05 2021 73.0 F. 61.0 F.
Fri Sep 3 12:08:22 2021 80.0 F. 57.0 F.
Fri Sep 3 13:08:06 2021 82.0 F. 59.0 F.
Fri Sep 3 14:08:25 2021 82.0 F. 59.0 F.
Fri Sep 3 15:08:04 2021 82.0 F. 59.0 F.
Fri Sep 3 16:08:04 2021 81.0 F. 60.1 F.
Fri Sep 3 17:08:04 2021 79.0 F. 62.1 F.
Fri Sep 3 18:08:05 2021 79.0 F. 62.1 F.
Fri Sep 3 19:08:05 2021 79.0 F. 62.1 F.
Fri Sep 3 20:08:04 2021 72.0 F. 64.9 F.
Fri Sep 3 21:08:05 2021 70.0 F. 64.0 F.
Fri Sep 3 22:08:05 2021 70.0 F. 64.0 F.
Fri Sep 3 23:08:04 2021 66.0 F. 64.0 F.
Sat Sep 4 00:08:05 2021 66.0 F. 63.0 F.
Sat Sep 4 01:08:05 2021 65.0 F. 62.1 F.
Sat Sep 4 02:08:05 2021 65.0 F. 62.1 F.
Sat Sep 4 03:08:05 2021 67.0 F. 62.1 F.
Sat Sep 4 04:08:04 2021 67.0 F. 62.1 F.
Sat Sep 4 05:08:05 2021 67.0 F. 62.1 F.
Sat Sep 4 06:08:05 2021 68.0 F. 63.0 F.
Sat Sep 4 07:08:05 2021 69.0 F. 63.0 F.
Sat Sep 4 08:08:05 2021 69.0 F. 63.0 F.
Sat Sep 4 09:08:04 2021 69.0 F. 63.0 F.
Sat Sep 4 10:08:05 2021 68.0 F. 66.9 F.
Sat Sep 4 11:08:05 2021 68.0 F. 66.9 F.
Sat Sep 4 12:08:04 2021 70.0 F. 69.1 F.
Sat Sep 4 13:08:05 2021 70.0 F. 69.1 F.
Sat Sep 4 14:08:05 2021 69.0 F. 69.1 F.
Sat Sep 4 15:08:05 2021 71.0 F. 70.0 F.
Sat Sep 4 16:08:04 2021 73.0 F. 70.0 F.
Sat Sep 4 17:08:04 2021 75.0 F. 72.0 F.
Sat Sep 4 18:08:04 2021 75.0 F. 72.0 F.
Sat Sep 4 19:08:04 2021 75.0 F. 72.0 F.
Sat Sep 4 20:08:05 2021 73.0 F. 72.0 F.
Sat Sep 4 21:08:05 2021 73.0 F. 72.0 F.
Sat Sep 4 22:08:06 2021 73.0 F. 71.1 F.
Sat Sep 4 23:08:04 2021 72.0 F. 72.0 F.
Sun Sep 5 00:08:04 2021 71.0 F. 71.1 F.
Sun Sep 5 01:08:05 2021 71.0 F. 71.1 F.
Sun Sep 5 02:08:05 2021 71.0 F. 71.1 F.
Sun Sep 5 03:08:05 2021 71.0 F. 71.1 F.
Sun Sep 5 04:08:05 2021 71.0 F. 71.1 F.
Sun Sep 5 05:08:05 2021 71.0 F. 71.1 F.
Sun Sep 5 06:08:05 2021 71.0 F. 70.0 F.
Sun Sep 5 07:08:05 2021 70.0 F. 69.1 F.
Sun Sep 5 08:08:05 2021 70.0 F. 66.9 F.
Sun Sep 5 09:08:04 2021 70.0 F. 66.0 F.
Sun Sep 5 10:08:05 2021 72.0 F. 63.0 F.
Sun Sep 5 11:08:05 2021 72.0 F. 63.0 F.
Sun Sep 5 12:08:05 2021 72.0 F. 63.0 F.
Sun Sep 5 13:08:04 2021 77.0 F. 62.1 F.
Sun Sep 5 14:08:05 2021 80.0 F. 59.0 F.
Sun Sep 5 15:08:05 2021 80.0 F. 59.0 F.
Sun Sep 5 16:08:05 2021 82.0 F. 60.1 F.
Sun Sep 5 17:08:04 2021 81.0 F. 59.0 F.
Sun Sep 5 18:08:05 2021 80.0 F. 57.0 F.
Sun Sep 5 19:08:04 2021 80.0 F. 57.0 F.
Sun Sep 5 20:08:05 2021 75.0 F. 60.1 F.
Sun Sep 5 21:08:05 2021 66.0 F. 64.0 F.
Sun Sep 5 22:08:04 2021 64.0 F. 63.0 F.
Sun Sep 5 23:08:05 2021 61.0 F. 60.1 F.
Mon Sep 6 00:08:04 2021 61.0 F. 60.1 F.
Mon Sep 6 01:08:05 2021 61.0 F. 61.0 F.
Mon Sep 6 02:08:05 2021 58.0 F. 57.9 F.
Mon Sep 6 03:08:04 2021 58.0 F. 57.9 F.
Mon Sep 6 04:08:05 2021 57.0 F. 57.0 F.
Mon Sep 6 05:08:05 2021 58.0 F. 57.0 F.
Mon Sep 6 06:08:05 2021 57.0 F. 57.0 F.
Mon Sep 6 07:08:05 2021 57.0 F. 57.0 F.
Mon Sep 6 08:08:04 2021 58.0 F. 57.0 F.
Mon Sep 6 09:08:05 2021 64.0 F. 63.0 F.
Mon Sep 6 10:08:04 2021 70.0 F. 64.0 F.
Mon Sep 6 11:08:05 2021 75.0 F. 64.9 F.
Mon Sep 6 12:08:05 2021 82.0 F. 64.0 F.
Mon Sep 6 13:08:04 2021 82.0 F. 64.0 F.
Mon Sep 6 14:08:04 2021 84.0 F. 63.0 F.
Mon Sep 6 15:08:04 2021 86.0 F. 62.1 F.
Mon Sep 6 16:08:05 2021 86.0 F. 62.1 F.
Mon Sep 6 17:08:05 2021 85.0 F. 62.1 F.
Mon Sep 6 18:08:04 2021 83.0 F. 63.0 F.
Mon Sep 6 19:08:05 2021 78.0 F. 66.0 F.
Mon Sep 6 20:08:05 2021 69.0 F. 66.9 F.
Mon Sep 6 21:08:04 2021 67.0 F. 64.9 F.
Mon Sep 6 22:08:04 2021 67.0 F. 64.9 F.
Mon Sep 6 23:08:04 2021 64.0 F. 64.0 F.
Tue Sep 7 00:08:04 2021 62.0 F. 62.1 F.
Tue Sep 7 01:08:04 2021 62.0 F. 61.0 F.
Tue Sep 7 02:08:05 2021 60.0 F. 60.1 F.
Tue Sep 7 03:08:05 2021 61.0 F. 61.0 F.
Tue Sep 7 04:08:04 2021 59.0 F. 59.0 F.
Tue Sep 7 05:08:04 2021 59.0 F. 59.0 F.
Tue Sep 7 06:08:05 2021 60.0 F. 60.1 F.
Tue Sep 7 07:08:05 2021 60.0 F. 60.1 F.
Tue Sep 7 08:08:05 2021 60.0 F. 60.1 F.
Tue Sep 7 09:08:05 2021 65.0 F. 64.0 F.
Tue Sep 7 10:08:04 2021 77.0 F. 63.0 F.
Tue Sep 7 11:08:05 2021 80.0 F. 64.0 F.
Tue Sep 7 12:08:04 2021 83.0 F. 64.0 F.
Tue Sep 7 13:08:05 2021 83.0 F. 64.0 F.
Tue Sep 7 14:08:04 2021 85.0 F. 63.0 F.
Tue Sep 7 15:08:04 2021 85.0 F. 62.1 F.
Tue Sep 7 16:08:04 2021 86.0 F. 62.1 F.
Tue Sep 7 17:08:05 2021 86.0 F. 64.0 F.
Tue Sep 7 18:08:05 2021 83.0 F. 63.0 F.
Tue Sep 7 19:08:04 2021 83.0 F. 63.0 F.
Tue Sep 7 20:08:05 2021 78.0 F. 64.0 F.
Tue Sep 7 21:08:05 2021 74.0 F. 62.1 F.
Tue Sep 7 22:08:05 2021 73.0 F. 63.0 F.
Tue Sep 7 23:08:05 2021 75.0 F. 62.1 F.
Wed Sep 8 00:08:04 2021 75.0 F. 61.0 F.
Wed Sep 8 01:08:04 2021 75.0 F. 60.1 F.
Wed Sep 8 02:08:05 2021 74.0 F. 61.0 F.
Wed Sep 8 03:08:05 2021 72.0 F. 62.1 F.
Wed Sep 8 04:08:04 2021 72.0 F. 62.1 F.
Wed Sep 8 05:08:04 2021 70.0 F. 64.0 F.
Wed Sep 8 06:08:04 2021 70.0 F. 64.9 F.
Wed Sep 8 07:08:05 2021 66.0 F. 63.0 F.
Wed Sep 8 08:08:05 2021 68.0 F. 61.0 F.
Wed Sep 8 09:08:04 2021 71.0 F. 59.0 F.
Wed Sep 8 10:08:05 2021 71.0 F. 59.0 F.
Wed Sep 8 11:08:05 2021 76.0 F. 57.9 F.
Wed Sep 8 12:08:05 2021 81.0 F. 54.0 F.
Wed Sep 8 13:08:05 2021 82.0 F. 51.1 F.
Wed Sep 8 14:08:05 2021 82.0 F. 51.1 F.
Wed Sep 8 15:08:04 2021 83.0 F. 48.0 F.
Wed Sep 8 16:08:05 2021 83.0 F. 48.9 F.
Wed Sep 8 17:08:05 2021 83.0 F. 48.9 F.
Wed Sep 8 18:08:04 2021 82.0 F. 46.0 F.
Wed Sep 8 19:08:04 2021 80.0 F. 48.0 F.
Wed Sep 8 20:08:05 2021 74.0 F. 51.1 F.
Wed Sep 8 21:08:05 2021 60.0 F. 57.9 F.
Wed Sep 8 22:08:04 2021 60.0 F. 57.9 F.
Wed Sep 8 23:08:04 2021 59.0 F. 57.9 F.
Thu Sep 9 00:08:05 2021 57.0 F. 55.9 F.
Thu Sep 9 01:08:05 2021 58.0 F. 55.9 F.
Thu Sep 9 02:08:05 2021 56.0 F. 55.0 F.
Thu Sep 9 03:08:04 2021 56.0 F. 55.0 F.
Thu Sep 9 04:08:04 2021 55.0 F. 55.0 F.
Thu Sep 9 05:08:05 2021 54.0 F. 53.1 F.
Thu Sep 9 06:08:04 2021 53.0 F. 53.1 F.
Thu Sep 9 07:08:05 2021 54.0 F. 53.1 F.
Thu Sep 9 08:08:04 2021 54.0 F. 53.1 F.
Thu Sep 9 09:08:05 2021 66.0 F. 57.9 F.
Thu Sep 9 10:08:04 2021 66.0 F. 57.9 F.
Thu Sep 9 11:08:04 2021 70.0 F. 59.0 F.
Thu Sep 9 12:08:04 2021 76.0 F. 57.9 F.
Thu Sep 9 13:08:04 2021 78.0 F. 55.9 F.
Thu Sep 9 14:08:04 2021 80.0 F. 55.0 F.
Thu Sep 9 15:08:04 2021 81.0 F. 54.0 F.
Thu Sep 9 16:08:05 2021 81.0 F. 54.0 F.
Thu Sep 9 17:08:05 2021 80.0 F. 54.0 F.
Thu Sep 9 18:08:05 2021 80.0 F. 54.0 F.
Thu Sep 9 19:08:04 2021 78.0 F. 57.0 F.
Thu Sep 9 20:08:04 2021 62.0 F. 61.0 F.
Thu Sep 9 21:08:05 2021 62.0 F. 61.0 F.
Thu Sep 9 22:08:05 2021 60.0 F. 59.0 F.
Thu Sep 9 23:08:05 2021 57.0 F. 57.0 F.
Fri Sep 10 00:08:05 2021 57.0 F. 57.0 F.
Fri Sep 10 01:08:05 2021 56.0 F. 55.9 F.
Fri Sep 10 02:08:04 2021 56.0 F. 55.0 F.
Fri Sep 10 03:08:05 2021 54.0 F. 54.0 F.
Fri Sep 10 04:08:05 2021 53.0 F. 53.1 F.
Fri Sep 10 05:08:05 2021 52.0 F. 52.0 F.
Fri Sep 10 06:08:04 2021 52.0 F. 52.0 F.
Fri Sep 10 07:08:04 2021 52.0 F. 52.0 F.
Fri Sep 10 08:08:04 2021 53.0 F. 53.1 F.
Fri Sep 10 09:08:05 2021 59.0 F. 57.9 F.
Fri Sep 10 10:08:05 2021 64.0 F. 62.1 F.
Fri Sep 10 11:08:04 2021 71.0 F. 61.0 F.
Fri Sep 10 12:08:05 2021 77.0 F. 59.0 F.
Fri Sep 10 13:08:04 2021 77.0 F. 59.0 F.
Fri Sep 10 14:08:05 2021 82.0 F. 55.9 F.
Fri Sep 10 15:08:05 2021 82.0 F. 55.9 F.
Fri Sep 10 16:08:05 2021 82.0 F. 59.0 F.
Fri Sep 10 17:08:04 2021 82.0 F. 59.0 F.
Fri Sep 10 18:08:05 2021 81.0 F. 59.0 F.
Fri Sep 10 19:08:04 2021 75.0 F. 61.0 F.
Fri Sep 10 20:08:05 2021 75.0 F. 61.0 F.
Fri Sep 10 21:08:04 2021 67.0 F. 61.0 F.
Fri Sep 10 22:08:05 2021 64.0 F. 61.0 F.
Fri Sep 10 23:08:05 2021 68.0 F. 60.1 F.
Sat Sep 11 00:08:04 2021 67.0 F. 60.1 F.
Sat Sep 11 01:08:04 2021 66.0 F. 61.0 F.
Sat Sep 11 02:08:05 2021 69.0 F. 61.0 F.
Sat Sep 11 03:08:04 2021 69.0 F. 61.0 F.
Sat Sep 11 04:08:05 2021 68.0 F. 61.0 F.
Sat Sep 11 05:08:05 2021 68.0 F. 61.0 F.
Sat Sep 11 06:08:04 2021 68.0 F. 61.0 F.
Sat Sep 11 07:08:04 2021 67.0 F. 60.1 F.
Sat Sep 11 08:08:05 2021 68.0 F. 60.1 F.
Sat Sep 11 09:08:05 2021 68.0 F. 60.1 F.
Sat Sep 11 10:08:05 2021 71.0 F. 61.0 F.
Sat Sep 11 11:08:05 2021 75.0 F. 62.1 F.
Sat Sep 11 12:08:04 2021 79.0 F. 63.0 F.
Sat Sep 11 13:08:04 2021 81.0 F. 64.0 F.
Sat Sep 11 14:08:05 2021 82.0 F. 64.0 F.
Sat Sep 11 15:08:05 2021 84.0 F. 66.0 F.
Sat Sep 11 16:08:05 2021 84.0 F. 66.0 F.
Sat Sep 11 17:08:04 2021 83.0 F. 64.9 F.
Sat Sep 11 18:08:05 2021 81.0 F. 64.0 F.
Sat Sep 11 19:08:04 2021 79.0 F. 64.0 F.
Sat Sep 11 20:08:05 2021 76.0 F. 64.0 F.
Sat Sep 11 21:08:04 2021 76.0 F. 64.0 F.
Sat Sep 11 22:08:04 2021 74.0 F. 64.0 F.
Sat Sep 11 23:08:05 2021 74.0 F. 64.0 F.
Sun Sep 12 00:08:05 2021 73.0 F. 64.0 F.
Sun Sep 12 01:08:04 2021 72.0 F. 63.0 F.
Sun Sep 12 02:08:04 2021 72.0 F. 63.0 F.
Sun Sep 12 03:08:05 2021 72.0 F. 62.1 F.
Sun Sep 12 04:08:05 2021 70.0 F. 61.0 F.
Sun Sep 12 05:08:04 2021 69.0 F. 61.0 F.
Sun Sep 12 06:08:05 2021 67.0 F. 62.1 F.
Sun Sep 12 07:08:04 2021 63.0 F. 61.0 F.
Sun Sep 12 08:08:05 2021 63.0 F. 61.0 F.
Sun Sep 12 09:08:05 2021 72.0 F. 63.0 F.
Sun Sep 12 10:08:05 2021 72.0 F. 63.0 F.
Sun Sep 12 11:08:04 2021 77.0 F. 63.0 F.
Sun Sep 12 12:08:05 2021 80.0 F. 64.0 F.
Sun Sep 12 13:08:04 2021 84.0 F. 64.0 F.
Sun Sep 12 14:08:05 2021 85.0 F. 64.9 F.
Sun Sep 12 15:08:04 2021 85.0 F. 64.9 F.
Sun Sep 12 16:08:04 2021 85.0 F. 66.9 F.
Sun Sep 12 17:08:05 2021 85.0 F. 66.9 F.
Sun Sep 12 18:08:04 2021 84.0 F. 66.9 F.
Sun Sep 12 19:08:04 2021 81.0 F. 66.9 F.
Sun Sep 12 20:08:05 2021 74.0 F. 66.9 F.
Sun Sep 12 21:08:04 2021 72.0 F. 66.0 F.
Sun Sep 12 22:08:05 2021 71.0 F. 66.0 F.
Sun Sep 12 23:08:05 2021 71.0 F. 66.0 F.
Mon Sep 13 00:08:05 2021 69.0 F. 64.9 F.
Mon Sep 13 01:08:05 2021 69.0 F. 64.9 F.
Mon Sep 13 02:08:04 2021 68.0 F. 64.9 F.
Mon Sep 13 03:08:05 2021 69.0 F. 66.0 F.
Mon Sep 13 04:08:04 2021 65.0 F. 64.0 F.
Mon Sep 13 05:08:05 2021 64.0 F. 63.0 F.
Mon Sep 13 06:08:05 2021 64.0 F. 63.0 F.
Mon Sep 13 07:08:05 2021 63.0 F. 63.0 F.
Mon Sep 13 08:08:04 2021 68.0 F. 66.9 F.
Mon Sep 13 09:08:04 2021 75.0 F. 70.0 F.
Mon Sep 13 10:08:04 2021 80.0 F. 71.1 F.
Mon Sep 13 11:08:05 2021 80.0 F. 71.1 F.
Mon Sep 13 12:08:05 2021 84.0 F. 71.1 F.
Mon Sep 13 13:08:04 2021 84.0 F. 70.0 F.
Mon Sep 13 14:08:05 2021 84.0 F. 70.0 F.
Mon Sep 13 15:08:05 2021 87.0 F. 69.1 F.
Mon Sep 13 16:08:08 2021 88.0 F. 69.1 F.
Mon Sep 13 17:08:05 2021 88.0 F. 69.1 F.
Mon Sep 13 18:08:05 2021 88.0 F. 69.1 F.
Mon Sep 13 19:08:05 2021 86.0 F. 69.1 F.
Mon Sep 13 20:08:04 2021 83.0 F. 69.1 F.
Mon Sep 13 21:08:05 2021 80.0 F. 69.1 F.
Mon Sep 13 22:08:05 2021 76.0 F. 70.0 F.
Mon Sep 13 23:08:04 2021 76.0 F. 70.0 F.
Tue Sep 14 00:08:05 2021 74.0 F. 70.0 F.
Tue Sep 14 01:08:05 2021 74.0 F. 70.0 F.
Tue Sep 14 02:08:04 2021 73.0 F. 70.0 F.
Tue Sep 14 03:08:04 2021 73.0 F. 70.0 F.
Tue Sep 14 04:08:05 2021 73.0 F. 70.0 F.
Tue Sep 14 05:08:04 2021 73.0 F. 70.0 F.
Tue Sep 14 06:08:04 2021 70.0 F. 69.1 F.
Tue Sep 14 07:08:05 2021 70.0 F. 69.1 F.
Tue Sep 14 08:08:05 2021 75.0 F. 70.0 F.
Tue Sep 14 09:08:04 2021 75.0 F. 70.0 F.
Tue Sep 14 10:08:04 2021 81.0 F. 71.1 F.
Tue Sep 14 11:08:05 2021 84.0 F. 72.0 F.
Tue Sep 14 12:08:05 2021 84.0 F. 72.0 F.
Tue Sep 14 13:08:04 2021 85.0 F. 72.0 F.
Tue Sep 14 14:08:05 2021 88.0 F. 72.0 F.
Tue Sep 14 15:08:04 2021 88.0 F. 72.0 F.
Tue Sep 14 16:08:04 2021 89.0 F. 72.0 F.
Tue Sep 14 17:08:05 2021 89.0 F. 71.1 F.
Tue Sep 14 18:08:05 2021 89.0 F. 69.1 F.
Tue Sep 14 19:08:05 2021 81.0 F. 72.0 F.
Tue Sep 14 20:08:04 2021 81.0 F. 72.0 F.
Tue Sep 14 21:08:05 2021 77.0 F. 71.1 F.
Tue Sep 14 22:08:04 2021 76.0 F. 71.1 F.
Tue Sep 14 23:08:04 2021 75.0 F. 72.0 F.
Wed Sep 15 00:08:04 2021 74.0 F. 71.1 F.
Wed Sep 15 01:08:05 2021 72.0 F. 70.0 F.
Wed Sep 15 02:08:05 2021 72.0 F. 70.0 F.
Wed Sep 15 03:08:04 2021 70.0 F. 69.1 F.
Wed Sep 15 04:08:04 2021 71.0 F. 70.0 F.
Wed Sep 15 05:08:04 2021 71.0 F. 66.9 F.
Wed Sep 15 06:08:05 2021 69.0 F. 64.9 F.
Wed Sep 15 07:08:04 2021 69.0 F. 66.9 F.
Wed Sep 15 08:08:04 2021 69.0 F. 66.9 F.
Wed Sep 15 09:08:04 2021 71.0 F. 66.9 F.
Wed Sep 15 10:08:04 2021 68.0 F. 66.0 F.
Wed Sep 15 11:08:04 2021 69.0 F. 66.9 F.
Wed Sep 15 12:08:05 2021 69.0 F. 66.9 F.
Wed Sep 15 13:08:06 2021 73.0 F. 66.9 F.
Wed Sep 15 14:08:05 2021 73.0 F. 66.9 F.
Wed Sep 15 15:08:05 2021 80.0 F. 64.0 F.
Wed Sep 15 16:08:05 2021 80.0 F. 64.0 F.
Wed Sep 15 17:08:04 2021 82.0 F. 64.0 F.
Wed Sep 15 18:08:05 2021 82.0 F. 62.1 F.
Wed Sep 15 19:08:04 2021 80.0 F. 62.1 F.
Wed Sep 15 20:08:05 2021 68.0 F. 64.9 F.
Wed Sep 15 21:08:05 2021 66.0 F. 64.0 F.
Wed Sep 15 22:08:05 2021 62.0 F. 62.1 F.
Wed Sep 15 23:08:05 2021 60.0 F. 60.1 F.
Thu Sep 16 00:08:04 2021 60.0 F. 59.0 F.
Thu Sep 16 01:08:05 2021 60.0 F. 60.1 F.
Thu Sep 16 02:08:04 2021 60.0 F. 60.1 F.
Thu Sep 16 03:08:04 2021 57.0 F. 57.0 F.
Thu Sep 16 04:08:05 2021 58.0 F. 57.9 F.
Thu Sep 16 05:08:04 2021 59.0 F. 59.0 F.
Thu Sep 16 06:08:04 2021 57.0 F. 57.0 F.
Thu Sep 16 07:08:04 2021 57.0 F. 57.0 F.
Thu Sep 16 08:08:04 2021 56.0 F. 55.9 F.
Thu Sep 16 09:08:05 2021 62.0 F. 61.0 F.
Thu Sep 16 10:08:04 2021 68.0 F. 64.9 F.
Thu Sep 16 11:08:04 2021 73.0 F. 66.0 F.
Thu Sep 16 12:08:05 2021 78.0 F. 66.9 F.
Thu Sep 16 13:08:04 2021 83.0 F. 66.9 F.
Thu Sep 16 14:08:04 2021 83.0 F. 66.9 F.
Thu Sep 16 15:08:04 2021 85.0 F. 66.0 F.
Thu Sep 16 16:08:05 2021 86.0 F. 63.0 F.
Thu Sep 16 17:08:06 2021 83.0 F. 64.0 F.
Thu Sep 16 18:08:04 2021 83.0 F. 64.0 F.
Thu Sep 16 19:08:04 2021 83.0 F. 66.0 F.
Thu Sep 16 20:08:05 2021 77.0 F. 68.0 F.
Thu Sep 16 21:08:05 2021 70.0 F. 68.0 F.
Thu Sep 16 22:08:04 2021 68.0 F. 66.9 F.
Thu Sep 16 23:08:05 2021 67.0 F. 66.0 F.
Fri Sep 17 00:08:05 2021 66.0 F. 64.9 F.
Fri Sep 17 01:08:04 2021 65.0 F. 64.9 F.
Fri Sep 17 02:08:05 2021 65.0 F. 64.9 F.
Fri Sep 17 03:08:05 2021 64.0 F. 64.0 F.
Fri Sep 17 04:08:04 2021 66.0 F. 66.0 F.
Fri Sep 17 05:08:05 2021 64.0 F. 64.0 F.
Fri Sep 17 06:08:04 2021 64.0 F. 64.0 F.
Fri Sep 17 07:08:05 2021 63.0 F. 63.0 F.
Fri Sep 17 08:08:05 2021 63.0 F. 63.0 F.
Fri Sep 17 09:08:04 2021 72.0 F. 69.1 F.
Fri Sep 17 10:08:04 2021 72.0 F. 69.1 F.
Fri Sep 17 11:08:05 2021 82.0 F. 70.0 F.
Fri Sep 17 12:08:06 2021 82.0 F. 70.0 F.
Fri Sep 17 13:08:04 2021 83.0 F. 70.0 F.
Fri Sep 17 14:08:04 2021 81.0 F. 71.1 F.
Fri Sep 17 15:08:04 2021 82.0 F. 71.1 F.
Fri Sep 17 16:08:04 2021 81.0 F. 71.1 F.
Fri Sep 17 17:08:05 2021 82.0 F. 71.1 F.
Fri Sep 17 18:08:04 2021 82.0 F. 71.1 F.
Fri Sep 17 19:08:05 2021 80.0 F. 70.0 F.
Fri Sep 17 20:08:04 2021 77.0 F. 71.1 F.
Fri Sep 17 21:08:04 2021 72.0 F. 70.0 F.
Fri Sep 17 22:08:04 2021 70.0 F. 69.1 F.
Fri Sep 17 23:08:05 2021 70.0 F. 69.1 F.
Sat Sep 18 00:08:04 2021 71.0 F. 70.0 F.
Sat Sep 18 01:08:04 2021 72.0 F. 71.1 F.
Sat Sep 18 02:08:04 2021 72.0 F. 71.1 F.
Sat Sep 18 03:08:05 2021 71.0 F. 70.0 F.
Sat Sep 18 04:08:04 2021 71.0 F. 70.0 F.
Sat Sep 18 05:08:04 2021 69.0 F. 69.1 F.
Sat Sep 18 06:08:04 2021 70.0 F. 69.1 F.
Sat Sep 18 07:08:04 2021 70.0 F. 70.0 F.
Sat Sep 18 08:08:04 2021 72.0 F. 71.1 F.
Sat Sep 18 09:08:05 2021 72.0 F. 71.1 F.
Sat Sep 18 10:08:05 2021 76.0 F. 71.1 F.
Sat Sep 18 11:08:04 2021 76.0 F. 71.1 F.
Sat Sep 18 12:08:05 2021 83.0 F. 71.1 F.
Sat Sep 18 13:08:04 2021 83.0 F. 71.1 F.
Sat Sep 18 14:08:05 2021 83.0 F. 70.0 F.
Sat Sep 18 15:08:04 2021 87.0 F. 69.1 F.
Sat Sep 18 16:08:04 2021 87.0 F. 70.0 F.
Sat Sep 18 17:08:05 2021 87.0 F. 70.0 F.
Sat Sep 18 18:08:05 2021 84.0 F. 69.1 F.
Sat Sep 18 19:08:05 2021 81.0 F. 70.0 F.
Sat Sep 18 20:08:05 2021 73.0 F. 71.1 F.
Sat Sep 18 21:08:05 2021 73.0 F. 71.1 F.
Sat Sep 18 22:08:04 2021 73.0 F. 71.1 F.
Sat Sep 18 23:08:05 2021 71.0 F. 69.1 F.
Sun Sep 19 00:08:04 2021 68.0 F. 66.9 F.
Sun Sep 19 01:08:05 2021 68.0 F. 66.9 F.